SB KEPS @ AMSAT $ORB14072.O Orbital Elements 14072.OSCAR
HR AMSAT ORBITAL ELEMENTS FOR OSCAR SATELLITES FROM WA5QGD FORT WORTH,TX March 13, 2014 BID: ORB14072.O TO ALL RADIO AMATEURS BT
Satellite: AO-07 Catalog number: 07530 Epoch time: 14072.86077674 Element set: 915 Inclination: 101.4638 deg RA of node: 057.8636 deg Eccentricity: 0.0012316 Arg of perigee: 120.2460 deg Mean anomaly: 354.7859 deg Mean motion: 12.53603199 rev/day Decay rate: -5.3e-07 rev/day^2 Epoch rev: 79957 Checksum: 319
Satellite: FO-29 Catalog number: 24278 Epoch time: 14072.31301049 Element set: 329 Inclination: 098.5191 deg RA of node: 099.3816 deg Eccentricity: 0.0350717 Arg of perigee: 186.2385 deg Mean anomaly: 239.9821 deg Mean motion: 13.53017295 rev/day Decay rate: 2.8e-07 rev/day^2 Epoch rev: 86770 Checksum: 327
Satellite: SO-33 Catalog number: 25509 Epoch time: 14071.82343755 Element set: 707 Inclination: 031.4329 deg RA of node: 346.3429 deg Eccentricity: 0.0349912 Arg of perigee: 350.1693 deg Mean anomaly: 050.4985 deg Mean motion: 14.29361255 rev/day Decay rate: 1.383e-05 rev/day^2 Epoch rev: 80335 Checksum: 311
Satellite: RS-22 Catalog number: 27939 Epoch time: 14072.89347652 Element set: 304 Inclination: 097.8036 deg RA of node: 251.8119 deg Eccentricity: 0.0014072 Arg of perigee: 052.8574 deg Mean anomaly: 307.3950 deg Mean motion: 14.64984407 rev/day Decay rate: 1.626e-05 rev/day^2 Epoch rev: 55877 Checksum: 334
Satellite: VO-52 Catalog number: 28650 Epoch time: 14072.76010259 Element set: 681 Inclination: 097.5611 deg RA of node: 082.5228 deg Eccentricity: 0.0027206 Arg of perigee: 111.8635 deg Mean anomaly: 248.5478 deg Mean motion: 14.84968327 rev/day Decay rate: 4.141e-05 rev/day^2 Epoch rev: 47906 Checksum: 320
Satellite: HO-68 Catalog number: 36122 Epoch time: 14072.72199212 Element set: 406 Inclination: 100.2631 deg RA of node: 127.4626 deg Eccentricity: 0.0007708 Arg of perigee: 098.1707 deg Mean anomaly: 262.0283 deg Mean motion: 13.16312825 rev/day Decay rate: -4.3e-07 rev/day^2 Epoch rev: 20387 Checksum: 274
Satellite: AO-73 Catalog number: 39444 Epoch time: 14072.43442398 Element set: 88 Inclination: 097.7833 deg RA of node: 146.3395 deg Eccentricity: 0.0062223 Arg of perigee: 193.1724 deg Mean anomaly: 166.7831 deg Mean motion: 14.77746207 rev/day Decay rate: 4.113e-05 rev/day^2 Epoch rev: 1532 Checksum: 317
/EX SB KEPS @ AMSAT $ORB14072.D Orbital Elements 14072.MICROS
HR AMSAT ORBITAL ELEMENTS FOR THE MICROSATS FROM WA5QGD FORT WORTH,TX March 13, 2014 BID: ORB14072.D TO ALL RADIO AMATEURS BT
Satellite: UO-11 Catalog number: 14781 Epoch time: 14072.59862499 Element set: 437 Inclination: 097.8632 deg RA of node: 134.5440 deg Eccentricity: 0.0010116 Arg of perigee: 129.4722 deg Mean anomaly: 230.7387 deg Mean motion: 14.81388567 rev/day Decay rate: 1.381e-05 rev/day^2 Epoch rev: 61381 Checksum: 317
Satellite: AO-16 Catalog number: 20439 Epoch time: 14071.84006676 Element set: 976 Inclination: 098.5007 deg RA of node: 011.0283 deg Eccentricity: 0.0012115 Arg of perigee: 086.2445 deg Mean anomaly: 337.2060 deg Mean motion: 14.32303322 rev/day Decay rate: 3.17e-06 rev/day^2 Epoch rev: 26069 Checksum: 268
Satellite: LO-19 Catalog number: 20442 Epoch time: 14071.82734137 Element set: 914 Inclination: 098.4714 deg RA of node: 011.9632 deg Eccentricity: 0.0012992 Arg of perigee: 076.5457 deg Mean anomaly: 283.7175 deg Mean motion: 14.32508141 rev/day Decay rate: 3.06e-06 rev/day^2 Epoch rev: 26089 Checksum: 302
Satellite: AO-27 Catalog number: 22825 Epoch time: 14071.48348469 Element set: 617 Inclination: 098.6531 deg RA of node: 018.1320 deg Eccentricity: 0.0007894 Arg of perigee: 214.0584 deg Mean anomaly: 262.4307 deg Mean motion: 14.29674593 rev/day Decay rate: 2.16e-06 rev/day^2 Epoch rev: 6696 Checksum: 320
Satellite: IO-26 Catalog number: 22826 Epoch time: 14072.45594839 Element set: 375 Inclination: 098.6474 deg RA of node: 019.3337 deg Eccentricity: 0.0008640 Arg of perigee: 204.2360 deg Mean anomaly: 155.8416 deg Mean motion: 14.29970996 rev/day Decay rate: 3.06e-06 rev/day^2 Epoch rev: 6723 Checksum: 326
Satellite: GO-32 Catalog number: 25397 Epoch time: 14072.44081998 Element set: 298 Inclination: 098.4577 deg RA of node: 034.0599 deg Eccentricity: 0.0001073 Arg of perigee: 170.9552 deg Mean anomaly: 343.4593 deg Mean motion: 14.23416279 rev/day Decay rate: 1.54e-06 rev/day^2 Epoch rev: 81424 Checksum: 326
Satellite: NO-44 Catalog number: 26931 Epoch time: 14071.81285175 Element set: 553 Inclination: 067.0506 deg RA of node: 286.9672 deg Eccentricity: 0.0005417 Arg of perigee: 274.8916 deg Mean anomaly: 085.1567 deg Mean motion: 14.30060814 rev/day Decay rate: 2.60e-06 rev/day^2 Epoch rev: 64982 Checksum: 316
Satellite: SO-50 Catalog number: 27607 Epoch time: 14072.46842503 Element set: 329 Inclination: 064.5569 deg RA of node: 164.0806 deg Eccentricity: 0.0037038 Arg of perigee: 044.4770 deg Mean anomaly: 315.9294 deg Mean motion: 14.73516274 rev/day Decay rate: 1.292e-05 rev/day^2 Epoch rev: 60337 Checksum: 309
Satellite: CO-55 Catalog number: 27844 Epoch time: 14071.50720674 Element set: 876 Inclination: 098.6998 deg RA of node: 081.6702 deg Eccentricity: 0.0009867 Arg of perigee: 187.8132 deg Mean anomaly: 334.6404 deg Mean motion: 14.21421514 rev/day Decay rate: 4.54e-06 rev/day^2 Epoch rev: 55484 Checksum: 331
Satellite: CO-57 Catalog number: 27848 Epoch time: 14071.62323480 Element set: 817 Inclination: 098.7091 deg RA of node: 081.4427 deg Eccentricity: 0.0009635 Arg of perigee: 193.8399 deg Mean anomaly: 284.4277 deg Mean motion: 14.21120402 rev/day Decay rate: 3.74e-06 rev/day^2 Epoch rev: 55478 Checksum: 327
Satellite: AO-51 Catalog number: 28375 Epoch time: 14071.92140824 Element set: 793 Inclination: 098.2407 deg RA of node: 022.1651 deg Eccentricity: 0.0081876 Arg of perigee: 283.4283 deg Mean anomaly: 075.7791 deg Mean motion: 14.41315421 rev/day Decay rate: 5.19e-06 rev/day^2 Epoch rev: 51003 Checksum: 296
Satellite: CP3 Catalog number: 31129 Epoch time: 14071.92488770 Element set: 695 Inclination: 097.9246 deg RA of node: 054.8487 deg Eccentricity: 0.0097585 Arg of perigee: 311.3983 deg Mean anomaly: 100.1082 deg Mean motion: 14.54399438 rev/day Decay rate: 2.479e-05 rev/day^2 Epoch rev: 36604 Checksum: 343
Satellite: CO-65 Catalog number: 32785 Epoch time: 14071.76385706 Element set: 892 Inclination: 097.7120 deg RA of node: 126.1888 deg Eccentricity: 0.0015170 Arg of perigee: 142.6063 deg Mean anomaly: 354.9808 deg Mean motion: 14.84858251 rev/day Decay rate: 3.212e-05 rev/day^2 Epoch rev: 31771 Checksum: 325
Satellite: PRISM Catalog number: 33493 Epoch time: 14072.79111409 Element set: 726 Inclination: 098.2424 deg RA of node: 244.4812 deg Eccentricity: 0.0018153 Arg of perigee: 037.8007 deg Mean anomaly: 322.4459 deg Mean motion: 14.88384222 rev/day Decay rate: 8.087e-05 rev/day^2 Epoch rev: 27798 Checksum: 315
Satellite: SOHLA-1 Catalog number: 33496 Epoch time: 14072.13654054 Element set: 296 Inclination: 098.1569 deg RA of node: 192.9146 deg Eccentricity: 0.0006784 Arg of perigee: 177.9790 deg Mean anomaly: 306.1041 deg Mean motion: 14.70651773 rev/day Decay rate: 1.148e-05 rev/day^2 Epoch rev: 27539 Checksum: 325
Satellite: TISAT-1 Catalog number: 36799 Epoch time: 14072.76338121 Element set: 989 Inclination: 098.0176 deg RA of node: 164.0896 deg Eccentricity: 0.0012733 Arg of perigee: 272.2608 deg Mean anomaly: 087.7146 deg Mean motion: 14.84917772 rev/day Decay rate: 5.131e-05 rev/day^2 Epoch rev: 19855 Checksum: 344
Satellite: STUDSAT Catalog number: 36801 Epoch time: 14072.38703517 Element set: 785 Inclination: 098.0330 deg RA of node: 170.0214 deg Eccentricity: 0.0010308 Arg of perigee: 245.0347 deg Mean anomaly: 161.5587 deg Mean motion: 14.93757273 rev/day Decay rate: 2.0347e-04 rev/day^2 Epoch rev: 19881 Checksum: 292
Satellite: ALMASAT-1 Catalog number: 38078 Epoch time: 14072.49539350 Element set: 963 Inclination: 069.4707 deg RA of node: 288.8187 deg Eccentricity: 0.0628132 Arg of perigee: 158.8056 deg Mean anomaly: 204.0556 deg Mean motion: 14.41392156 rev/day Decay rate: 4.7695e-04 rev/day^2 Epoch rev: 10780 Checksum: 340
Satellite: XATCOBEO Catalog number: 38082 Epoch time: 14072.85883234 Element set: 31 Inclination: 069.4479 deg RA of node: 217.1594 deg Eccentricity: 0.0354241 Arg of perigee: 119.6239 deg Mean anomaly: 037.1303 deg Mean motion: 15.11973016 rev/day Decay rate: 2.42072e-03 rev/day^2 Epoch rev: 10977 Checksum: 296
Satellite: CUBEBUG-1 Catalog number: 39153 Epoch time: 14072.87193895 Element set: 936 Inclination: 098.0481 deg RA of node: 153.3668 deg Eccentricity: 0.0017040 Arg of perigee: 299.4799 deg Mean anomaly: 060.4710 deg Mean motion: 14.77306413 rev/day Decay rate: 2.784e-05 rev/day^2 Epoch rev: 4748 Checksum: 334
Satellite: ESTCUBE-1 Catalog number: 39161 Epoch time: 14072.85094517 Element set: 909 Inclination: 098.1014 deg RA of node: 154.4467 deg Eccentricity: 0.0009640 Arg of perigee: 346.4635 deg Mean anomaly: 013.6286 deg Mean motion: 14.69678526 rev/day Decay rate: 2.192e-05 rev/day^2 Epoch rev: 4559 Checksum: 322
/EX SB KEPS @ AMSAT $ORB14072.W Orbital Elements 14072.WEATHER
HR AMSAT ORBITAL ELEMENTS FOR WEATHER SATELLITES FROM WA5QGD FORT WORTH,TX March 13, 2014 BID: ORB14072.W TO ALL RADIO AMATEURS BT
Satellite: MET-3/5 Catalog number: 21655 Epoch time: 14072.78194777 Element set: 924 Inclination: 082.5542 deg RA of node: 063.8216 deg Eccentricity: 0.0013659 Arg of perigee: 170.6307 deg Mean anomaly: 189.5073 deg Mean motion: 13.17051357 rev/day Decay rate: 2.42e-06 rev/day^2 Epoch rev: 8542 Checksum: 309
Satellite: MET-2/21 Catalog number: 22782 Epoch time: 14072.84838193 Element set: 1 Inclination: 082.5468 deg RA of node: 248.9419 deg Eccentricity: 0.0022852 Arg of perigee: 169.9571 deg Mean anomaly: 303.7626 deg Mean motion: 13.83728035 rev/day Decay rate: 5.6e-07 rev/day^2 Epoch rev: 3693 Checksum: 322
